Location: Bailleul
(50.3375°N, 2.8513°E)
Time: 09:00:06
(UTC+00:00)

Meteor 2-11 Rocket - Pass Details

Date: 16 June 2021
Orbit: 938 x 958 km, 82.5° (Epoch: 03 August)

Event Time Altitude Azimuth Distance (km) Brightness Sun altitude
Rises 21:18:46 0° 349° (N) 3,639 8.9 -9.1°
Reaches altitude 10° 21:21:16 10° 350° (N) 2,687 8.0 -9.3°
Maximum altitude 21:27:26 87° 79° (E) 955 4.5 -9.9°
Enters shadow 21:33:25 11° 171° (S) 2,612 6.2 -10.4°
